| time (UTC) | temp F | wind direction | speed MPH | gust MPH | rain 1hr in | rain 24hr in | rain mn in | humidity % | barometer mb |
| 20260510081027 | 67 | 196 | 2.0 | 4.0 | 0.00 | 0.00 | 0.00 | 96 | 1013.4 |
| 20260510080526 | 67 | 202 | 1.0 | 4.0 | 0.00 | 0.00 | 0.00 | 96 | 1013.3 |
| 20260510080037 | 67 | 181 | 1.0 | 3.0 | 0.00 | 0.00 | 0.00 | 96 | 1013.3 |
| 20260510075526 | 66 | 171 | 1.0 | 3.0 | 0.00 | 0.17 | 0.00 | 96 | 1013.2 |
| 20260510075027 | 66 | 150 | 1.0 | 3.0 | 0.00 | 0.17 | 0.00 | 96 | 1013.2 |
| 20260510074535 | 65 | 0 | 0.0 | 0.0 | 0.00 | 0.17 | 0.00 | 94 | 1013.1 |
| 20260510074026 | 65 | 0 | 0.0 | 0.0 | 0.00 | 0.17 | 0.00 | 94 | 1013.1 |
| 20260510073526 | 65 | 0 | 0.0 | 0.0 | 0.00 | 0.17 | 0.00 | 94 | 1013.2 |
| 20260510073039 | 65 | 0 | 0.0 | 0.0 | 0.00 | 0.17 | 0.00 | 94 | 1013.1 |
| 20260510072525 | 65 | 0 | 0.0 | 0.0 | 0.00 | 0.17 | 0.00 | 94 | 1013.0 |
| 20260510072025 | 65 | 0 | 0.0 | 0.0 | 0.00 | 0.17 | 0.00 | 93 | 1013.0 |
| 20260510071551 | 65 | 0 | 0.0 | 0.0 | 0.00 | 0.17 | 0.00 | 93 | 1013.0 |
| 20260510071026 | 66 | 0 | 0.0 | 0.0 | 0.00 | 0.17 | 0.00 | 94 | 1012.9 |
| 20260510070527 | 66 | 0 | 0.0 | 1.0 | 0.00 | 0.17 | 0.00 | 94 | 1012.8 |
| 20260510070040 | 66 | 0 | 0.0 | 1.0 | 0.00 | 0.17 | 0.00 | 94 | 1012.8 |
| 20260510065527 | 66 | 0 | 0.0 | 1.0 | 0.00 | 0.18 | 0.00 | 94 | 1012.8 |
| 20260510065026 | 66 | 0 | 0.0 | 1.0 | 0.00 | 0.18 | 0.00 | 94 | 1012.8 |
| 20260510064535 | 66 | 0 | 0.0 | 1.0 | 0.00 | 0.18 | 0.00 | 95 | 1012.8 |
| 20260510064026 | 66 | 0 | 0.0 | 1.0 | 0.00 | 0.18 | 0.00 | 94 | 1012.8 |
| 20260510063530 | 66 | 0 | 0.0 | 1.0 | 0.00 | 0.18 | 0.00 | 94 | 1012.9 |
| 20260510063037 | 65 | 0 | 0.0 | 0.0 | 0.00 | 0.18 | 0.00 | 95 | 1012.9 |
| 20260510062522 | 65 | 0 | 0.0 | 1.0 | 0.00 | 0.18 | 0.00 | 94 | 1012.9 |
| 20260510062022 | 65 | 0 | 0.0 | 1.0 | 0.00 | 0.18 | 0.00 | 94 | 1012.9 |
| 20260510061546 | 65 | 0 | 0.0 | 1.0 | 0.00 | 0.18 | 0.00 | 94 | 1013.0 |
| 20260510061022 | 65 | 0 | 0.0 | 0.0 | 0.00 | 0.18 | 0.00 | 93 | 1013.1 |
| 20260510060522 | 65 | 0 | 0.0 | 0.0 | 0.00 | 0.18 | 0.00 | 94 | 1013.1 |
| 20260510060036 | 65 | 0 | 0.0 | 0.0 | 0.00 | 0.18 | 0.00 | 94 | 1013.1 |
| 20260510055524 | 65 | 0 | 0.0 | 0.0 | 0.00 | 0.19 | 0.00 | 93 | 1013.1 |
| 20260510055025 | 65 | 0 | 0.0 | 0.0 | 0.00 | 0.19 | 0.00 | 94 | 1013.1 |
| 20260510054542 | 65 | 0 | 0.0 | 0.0 | 0.00 | 0.19 | 0.00 | 94 | 1013.1 |
| 20260510054024 | 65 | 0 | 0.0 | 1.0 | 0.00 | 0.19 | 0.00 | 94 | 1013.1 |
| 20260510053523 | 65 | 0 | 0.0 | 1.0 | 0.00 | 0.19 | 0.00 | 94 | 1013.1 |
| 20260510053038 | 65 | 0 | 0.0 | 1.0 | 0.00 | 0.19 | 0.00 | 94 | 1013.1 |
| 20260510052530 | 65 | 0 | 0.0 | 0.0 | 0.00 | 0.19 | 0.00 | 94 | 1013.1 |
| 20260510052024 | 65 | 0 | 0.0 | 0.0 | 0.00 | 0.19 | 0.00 | 94 | 1013.1 |
| 20260510051535 | 65 | 0 | 0.0 | 0.0 | 0.00 | 0.19 | 0.00 | 94 | 1013.1 |
| 20260510051025 | 64 | 0 | 0.0 | 0.0 | 0.00 | 0.19 | 0.00 | 94 | 1013.1 |
| 20260510050526 | 64 | 0 | 0.0 | 0.0 | 0.00 | 0.19 | 0.00 | 93 | 1013.1 |
| 20260510050038 | 64 | 0 | 0.0 | 0.0 | 0.00 | 0.19 | 0.00 | 93 | 1013.0 |
| 20260510045527 | 65 | 0 | 0.0 | 0.0 | 0.00 | 0.32 | 0.19 | 94 | 1013.0 |
| 20260510045024 | 64 | 0 | 0.0 | 0.0 | 0.00 | 0.32 | 0.19 | 93 | 1013.0 |
| 20260510044537 | 64 | 0 | 0.0 | 0.0 | 0.00 | 0.32 | 0.19 | 93 | 1013.1 |
| 20260510044027 | 65 | 0 | 0.0 | 0.0 | 0.00 | 0.32 | 0.19 | 93 | 1013.0 |
| 20260510043526 | 65 | 0 | 0.0 | 0.0 | 0.00 | 0.32 | 0.19 | 93 | 1013.0 |
| 20260510043038 | 65 | 0 | 0.0 | 0.0 | 0.00 | 0.32 | 0.19 | 93 | 1013.1 |
| 20260510042525 | 65 | 0 | 0.0 | 0.0 | 0.00 | 0.32 | 0.19 | 93 | 1013.0 |
| 20260510042027 | 65 | 0 | 0.0 | 0.0 | 0.00 | 0.32 | 0.19 | 93 | 1013.1 |
| 20260510041540 | 65 | 0 | 0.0 | 0.0 | 0.00 | 0.32 | 0.19 | 92 | 1013.2 |
| 20260510041025 | 65 | 0 | 0.0 | 0.0 | 0.00 | 0.32 | 0.19 | 92 | 1013.3 |
| 20260510040525 | 66 | 0 | 0.0 | 0.0 | 0.00 | 0.32 | 0.19 | 92 | 1013.3 |
| 20260510040039 | 66 | 0 | 0.0 | 1.0 | 0.00 | 0.32 | 0.19 | 92 | 1013.3 |
| 20260510035524 | 66 | 0 | 0.0 | 1.0 | 0.00 | 0.32 | 0.19 | 92 | 1013.4 |
| 20260510035027 | 66 | 0 | 0.0 | 1.0 | 0.00 | 0.32 | 0.19 | 92 | 1013.2 |
| 20260510034540 | 66 | 116 | 0.0 | 1.0 | 0.00 | 0.32 | 0.19 | 92 | 1013.2 |
| 20260510034025 | 66 | 0 | 0.0 | 1.0 | 0.00 | 0.32 | 0.19 | 92 | 1013.2 |
| 20260510033524 | 66 | 0 | 0.0 | 1.0 | 0.00 | 0.32 | 0.19 | 92 | 1013.3 |
| 20260510033046 | 66 | 0 | 0.0 | 1.0 | 0.00 | 0.32 | 0.19 | 92 | 1013.4 |
| 20260510032524 | 66 | 0 | 0.0 | 1.0 | 0.00 | 0.32 | 0.19 | 92 | 1013.3 |
| 20260510032024 | 66 | 0 | 0.0 | 1.0 | 0.00 | 0.32 | 0.19 | 92 | 1013.3 |
| 20260510031600 | 67 | 0 | 0.0 | 0.0 | 0.00 | 0.32 | 0.19 | 92 | 1013.3 |
| 20260510031024 | 67 | 0 | 0.0 | 0.0 | 0.00 | 0.32 | 0.19 | 92 | 1013.3 |
| 20260510030524 | 66 | 0 | 0.0 | 1.0 | 0.00 | 0.32 | 0.19 | 92 | 1013.3 |
| 20260510030040 | 67 | 0 | 0.0 | 1.0 | 0.00 | 0.32 | 0.19 | 92 | 1013.3 |
| 20260510025524 | 66 | 0 | 0.0 | 1.0 | 0.00 | 0.32 | 0.19 | 92 | 1013.3 |
| 20260510025026 | 66 | 0 | 0.0 | 0.0 | 0.00 | 0.32 | 0.19 | 92 | 1013.3 |
| 20260510024544 | 66 | 0 | 0.0 | 0.0 | 0.00 | 0.32 | 0.19 | 93 | 1013.3 |
| 20260510024025 | 66 | 0 | 0.0 | 0.0 | 0.00 | 0.32 | 0.19 | 92 | 1013.3 |
| 20260510023525 | 66 | 0 | 0.0 | 0.0 | 0.00 | 0.32 | 0.19 | 92 | 1013.2 |
| 20260510023035 | 66 | 0 | 0.0 | 0.0 | 0.00 | 0.32 | 0.19 | 92 | 1013.2 |
| 20260510022527 | 66 | 0 | 0.0 | 0.0 | 0.00 | 0.32 | 0.19 | 92 | 1013.1 |
| 20260510022027 | 67 | 0 | 0.0 | 0.0 | 0.00 | 0.32 | 0.19 | 92 | 1013.0 |
| 20260510021537 | 67 | 0 | 0.0 | 0.0 | 0.00 | 0.32 | 0.19 | 92 | 1013.1 |
| 20260510021026 | 67 | 0 | 0.0 | 0.0 | 0.00 | 0.32 | 0.19 | 92 | 1012.9 |
| 20260510020526 | 67 | 0 | 0.0 | 0.0 | 0.00 | 0.32 | 0.19 | 91 | 1012.8 |
| 20260510020037 | 68 | 0 | 0.0 | 0.0 | 0.00 | 0.32 | 0.19 | 91 | 1012.8 |
| 20260510015526 | 68 | 0 | 0.0 | 0.0 | 0.00 | 0.32 | 0.19 | 91 | 1012.9 |
| 20260510015026 | 68 | 0 | 0.0 | 0.0 | 0.00 | 0.32 | 0.19 | 91 | 1012.8 |
| 20260510014542 | 68 | 0 | 0.0 | 0.0 | 0.00 | 0.32 | 0.19 | 90 | 1012.8 |
| 20260510014023 | 69 | 0 | 0.0 | 0.0 | 0.00 | 0.32 | 0.19 | 88 | 1012.7 |
| 20260510013526 | 70 | 0 | 0.0 | 0.0 | 0.00 | 0.32 | 0.19 | 87 | 1012.6 |
| 20260510013040 | 70 | 0 | 0.0 | 0.0 | 0.00 | 0.32 | 0.19 | 87 | 1012.4 |
| 20260510012524 | 71 | 0 | 0.0 | 0.0 | 0.00 | 0.32 | 0.19 | 87 | 1012.4 |
| 20260510012024 | 71 | 0 | 0.0 | 0.0 | 0.00 | 0.32 | 0.19 | 87 | 1012.4 |
| 20260510011546 | 71 | 0 | 0.0 | 3.0 | 0.00 | 0.32 | 0.19 | 87 | 1012.1 |
| 20260510011027 | 71 | 0 | 0.0 | 3.0 | 0.00 | 0.32 | 0.19 | 86 | 1012.1 |
| 20260510010526 | 72 | 169 | 1.0 | 3.0 | 0.00 | 0.32 | 0.19 | 85 | 1012.1 |
| 20260510010038 | 72 | 167 | 1.0 | 4.0 | 0.00 | 0.32 | 0.19 | 85 | 1012.1 |
| 20260510005528 | 72 | 167 | 1.0 | 4.0 | 0.00 | 0.32 | 0.19 | 84 | 1012.0 |
| 20260510005026 | 73 | 167 | 2.0 | 5.0 | 0.00 | 0.32 | 0.19 | 83 | 1011.9 |
| 20260510004534 | 73 | 172 | 3.0 | 5.0 | 0.00 | 0.32 | 0.19 | 81 | 1011.7 |
| 20260510004026 | 74 | 160 | 2.0 | 4.0 | 0.00 | 0.32 | 0.19 | 80 | 1011.6 |
| 20260510003526 | 74 | 170 | 1.0 | 3.0 | 0.00 | 0.32 | 0.19 | 78 | 1011.5 |
| 20260510003059 | 75 | 136 | 1.0 | 5.0 | 0.00 | 0.32 | 0.19 | 77 | 1011.6 |
| 20260510002527 | 75 | 163 | 2.0 | 5.0 | 0.00 | 0.32 | 0.19 | 77 | 1011.5 |
| 20260510002026 | 76 | 173 | 3.0 | 5.0 | 0.00 | 0.32 | 0.19 | 75 | 1011.5 |
| 20260510001539 | 76 | 160 | 2.0 | 5.0 | 0.00 | 0.32 | 0.19 | 75 | 1011.4 |
| 20260510001024 | 76 | 146 | 2.0 | 5.0 | 0.00 | 0.32 | 0.19 | 74 | 1011.3 |
| 20260510000524 | 77 | 122 | 1.0 | 6.0 | 0.00 | 0.32 | 0.19 | 72 | 1011.2 |
| 20260510000045 | 77 | 137 | 2.0 | 6.0 | 0.00 | 0.32 | 0.19 | 72 | 1011.1 |
| 20260509235523 | 78 | 149 | 2.0 | 6.0 | 0.00 | 0.32 | 0.19 | 71 | 1011.0 |
| 20260509235025 | 78 | 108 | 2.0 | 6.0 | 0.00 | 0.32 | 0.19 | 71 | 1011.1 |
| 20260509234556 | 78 | 136 | 3.0 | 6.0 | 0.00 | 0.32 | 0.19 | 70 | 1010.8 |
| 20260509234023 | 78 | 150 | 2.0 | 6.0 | 0.00 | 0.32 | 0.19 | 70 | 1010.8 |
| 20260509233522 | 78 | 139 | 3.0 | 6.0 | 0.00 | 0.32 | 0.19 | 70 | 1010.8 |
| 20260509233035 | 78 | 0 | 0.0 | 5.0 | 0.00 | 0.32 | 0.19 | 70 | 1010.8 |
| 20260509232523 | 78 | 89 | 2.0 | 5.0 | 0.00 | 0.32 | 0.19 | 69 | 1010.9 |
| 20260509232024 | 78 | 94 | 1.0 | 4.0 | 0.00 | 0.32 | 0.19 | 69 | 1010.8 |
| 20260509231548 | 78 | 146 | 2.0 | 6.0 | 0.00 | 0.32 | 0.19 | 70 | 1010.8 |
| 20260509231024 | 78 | 148 | 2.0 | 6.0 | 0.00 | 0.32 | 0.19 | 69 | 1010.8 |
| 20260509230523 | 78 | 160 | 3.0 | 6.0 | 0.00 | 0.32 | 0.19 | 69 | 1010.7 |
| 20260509230036 | 78 | 145 | 1.0 | 4.0 | 0.00 | 0.32 | 0.19 | 72 | 1010.8 |
| 20260509225527 | 78 | 191 | 1.0 | 10.0 | 0.00 | 0.32 | 0.19 | 69 | 1010.9 |
| 20260509225024 | 78 | 124 | 3.0 | 10.0 | 0.00 | 0.32 | 0.19 | 70 | 1010.8 |
| 20260509224536 | 79 | 103 | 3.0 | 10.0 | 0.00 | 0.32 | 0.19 | 69 | 1010.9 |
| 20260509224023 | 79 | 193 | 3.0 | 6.0 | 0.00 | 0.32 | 0.19 | 68 | 1010.9 |
| 20260509223521 | 78 | 0 | 1.0 | 6.0 | 0.00 | 0.32 | 0.19 | 70 | 1010.9 |
| 20260509223036 | 78 | 161 | 1.0 | 6.0 | 0.00 | 0.32 | 0.19 | 71 | 1010.9 |
| 20260509222521 | 78 | 165 | 1.0 | 5.0 | 0.00 | 0.32 | 0.19 | 70 | 1010.7 |
| 20260509222024 | 78 | 98 | 1.0 | 5.0 | 0.00 | 0.32 | 0.19 | 71 | 1010.7 |
| 20260509221541 | 78 | 91 | 2.0 | 5.0 | 0.00 | 0.32 | 0.19 | 69 | 1010.7 |
| 20260509221023 | 78 | 0 | 1.0 | 4.0 | 0.00 | 0.32 | 0.19 | 68 | 1010.7 |
| 20260509220523 | 78 | 132 | 1.0 | 4.0 | 0.00 | 0.32 | 0.19 | 66 | 1010.7 |
| 20260509220038 | 79 | 0 | 1.0 | 4.0 | 0.00 | 0.32 | 0.19 | 68 | 1010.6 |
| 20260509215525 | 79 | 0 | 0.0 | 5.0 | 0.00 | 0.32 | 0.19 | 68 | 1010.8 |
| 20260509215023 | 78 | 143 | 1.0 | 5.0 | 0.00 | 0.32 | 0.19 | 69 | 1010.8 |
| 20260509214538 | 78 | 99 | 1.0 | 5.0 | 0.00 | 0.32 | 0.19 | 70 | 1010.7 |
| 20260509214022 | 79 | 162 | 2.0 | 4.0 | 0.00 | 0.32 | 0.19 | 70 | 1010.9 |
| 20260509213524 | 78 | 0 | 1.0 | 5.0 | 0.00 | 0.32 | 0.19 | 68 | 1010.8 |
| 20260509213041 | 78 | 70 | 2.0 | 5.0 | 0.00 | 0.32 | 0.19 | 69 | 1010.8 |
| 20260509212525 | 78 | 101 | 1.0 | 5.0 | 0.00 | 0.32 | 0.19 | 70 | 1010.8 |
| 20260509212024 | 77 | 79 | 1.0 | 4.0 | 0.00 | 0.32 | 0.19 | 71 | 1010.8 |
| 20260509211539 | 78 | 58 | 2.0 | 4.0 | 0.00 | 0.32 | 0.19 | 71 | 1010.8 |
| 20260509211021 | 77 | 66 | 0.0 | 3.0 | 0.00 | 0.32 | 0.19 | 71 | 1010.9 |
| 20260509210521 | 77 | 0 | 0.0 | 4.0 | 0.00 | 0.32 | 0.19 | 72 | 1011.0 |
| 20260509210036 | 77 | 164 | 1.0 | 4.0 | 0.00 | 0.32 | 0.19 | 74 | 1011.0 |
| 20260509205525 | 77 | 0 | 2.0 | 4.0 | 0.00 | 0.32 | 0.19 | 73 | 1011.0 |
| 20260509205026 | 77 | 91 | 2.0 | 4.0 | 0.00 | 0.32 | 0.19 | 73 | 1010.9 |
| 20260509204541 | 77 | 146 | 1.0 | 4.0 | 0.00 | 0.32 | 0.19 | 73 | 1011.1 |
| 20260509204027 | 77 | 89 | 1.0 | 4.0 | 0.00 | 0.32 | 0.19 | 73 | 1011.2 |
| 20260509203526 | 77 | 131 | 1.0 | 4.0 | 0.00 | 0.32 | 0.19 | 73 | 1011.1 |
| 20260509203039 | 77 | 145 | 1.0 | 4.0 | 0.00 | 0.32 | 0.19 | 73 | 1011.2 |
| 20260509202525 | 77 | 0 | 0.0 | 4.0 | 0.00 | 0.32 | 0.19 | 73 | 1011.3 |
| 20260509202024 | 77 | 129 | 2.0 | 4.0 | 0.00 | 0.32 | 0.19 | 73 | 1011.4 |
| 20260509201538 | 77 | 75 | 0.0 | 4.0 | 0.00 | 0.32 | 0.19 | 73 | 1011.4 |
| 20260509201024 | 77 | 100 | 0.0 | 4.0 | 0.00 | 0.32 | 0.19 | 73 | 1011.2 |
| 20260509200527 | 77 | 115 | 0.0 | 4.0 | 0.00 | 0.32 | 0.19 | 74 | 1011.4 |
| 20260509200037 | 76 | 93 | 1.0 | 5.0 | 0.00 | 0.32 | 0.19 | 72 | 1011.5 |
| 20260509195525 | 76 | 89 | 2.0 | 5.0 | 0.00 | 0.32 | 0.19 | 72 | 1011.3 |
| 20260509195026 | 77 | 75 | 0.0 | 3.0 | 0.00 | 0.32 | 0.19 | 73 | 1011.3 |
| 20260509194538 | 76 | 129 | 0.0 | 5.0 | 0.00 | 0.32 | 0.19 | 71 | 1011.4 |
| 20260509194024 | 76 | 83 | 1.0 | 5.0 | 0.00 | 0.32 | 0.19 | 71 | 1011.5 |
| 20260509193524 | 77 | 92 | 0.0 | 5.0 | 0.00 | 0.32 | 0.19 | 72 | 1011.3 |
| 20260509193042 | 77 | 82 | 2.0 | 7.0 | 0.00 | 0.32 | 0.19 | 71 | 1011.4 |
| 20260509192525 | 77 | 0 | 2.0 | 7.0 | 0.00 | 0.32 | 0.19 | 70 | 1011.3 |
| 20260509192025 | 77 | 153 | 2.0 | 5.0 | 0.00 | 0.32 | 0.19 | 73 | 1011.3 |
| 20260509191539 | 77 | 59 | 3.0 | 5.0 | 0.00 | 0.32 | 0.19 | 72 | 1011.2 |
| 20260509191028 | 77 | 72 | 1.0 | 6.0 | 0.00 | 0.32 | 0.19 | 71 | 1011.3 |
| 20260509190524 | 76 | 354 | 3.0 | 6.0 | 0.00 | 0.32 | 0.19 | 71 | 1011.3 |
| 20260509190041 | 77 | 86 | 2.0 | 7.0 | 0.00 | 0.32 | 0.19 | 70 | 1011.4 |
| 20260509185525 | 77 | 108 | 3.0 | 7.0 | 0.00 | 0.32 | 0.19 | 70 | 1011.4 |
| 20260509185025 | 77 | 0 | 0.0 | 5.0 | 0.00 | 0.32 | 0.19 | 71 | 1011.4 |
| 20260509184538 | 77 | 37 | 1.0 | 8.0 | 0.00 | 0.32 | 0.19 | 71 | 1011.3 |
| 20260509184024 | 77 | 153 | 2.0 | 8.0 | 0.00 | 0.32 | 0.19 | 73 | 1011.5 |
| 20260509183525 | 77 | 167 | 3.0 | 7.0 | 0.00 | 0.32 | 0.19 | 72 | 1011.5 |
| 20260509183050 | 77 | 0 | 1.0 | 7.0 | 0.00 | 0.32 | 0.19 | 70 | 1011.7 |
| 20260509182524 | 77 | 307 | 3.0 | 7.0 | 0.00 | 0.32 | 0.19 | 71 | 1011.7 |
| 20260509182024 | 76 | 175 | 2.0 | 6.0 | 0.00 | 0.32 | 0.19 | 74 | 1011.8 |
| 20260509181545 | 76 | 80 | 2.0 | 8.0 | 0.00 | 0.32 | 0.19 | 73 | 1011.8 |
| 20260509181024 | 76 | 113 | 5.0 | 8.0 | 0.00 | 0.32 | 0.19 | 75 | 1011.9 |
| 20260509180525 | 76 | 162 | 5.0 | 8.0 | 0.00 | 0.32 | 0.19 | 73 | 1011.9 |
| 20260509180037 | 75 | 0 | 1.0 | 8.0 | 0.00 | 0.32 | 0.19 | 74 | 1011.9 |
| 20260509175524 | 75 | 151 | 2.0 | 8.0 | 0.00 | 0.32 | 0.19 | 74 | 1012.1 |
| 20260509175025 | 75 | 72 | 2.0 | 8.0 | 0.00 | 0.32 | 0.19 | 75 | 1012.0 |
| 20260509174539 | 75 | 134 | 2.0 | 6.0 | 0.00 | 0.32 | 0.19 | 77 | 1012.1 |
| 20260509174025 | 75 | 131 | 2.0 | 6.0 | 0.00 | 0.32 | 0.19 | 75 | 1012.2 |
| 20260509173524 | 74 | 0 | 0.0 | 6.0 | 0.00 | 0.32 | 0.19 | 77 | 1012.4 |
| 20260509173035 | 75 | 93 | 4.0 | 6.0 | 0.00 | 0.32 | 0.19 | 76 | 1012.8 |
| 20260509172525 | 75 | 53 | 2.0 | 7.0 | 0.00 | 0.32 | 0.19 | 74 | 1012.6 |
| 20260509172025 | 75 | 144 | 2.0 | 7.0 | 0.00 | 0.32 | 0.19 | 75 | 1012.6 |
| 20260509171540 | 75 | 142 | 2.0 | 7.0 | 0.00 | 0.32 | 0.19 | 77 | 1012.5 |
| 20260509171024 | 74 | 136 | 1.0 | 5.0 | 0.00 | 0.32 | 0.19 | 78 | 1012.5 |
| 20260509170524 | 74 | 133 | 1.0 | 5.0 | 0.00 | 0.32 | 0.19 | 78 | 1012.7 |
| 20260509170038 | 74 | 115 | 1.0 | 6.0 | 0.00 | 0.32 | 0.19 | 77 | 1012.7 |
| 20260509165523 | 74 | 170 | 3.0 | 6.0 | 0.00 | 0.32 | 0.19 | 76 | 1012.8 |
| 20260509165023 | 74 | 44 | 1.0 | 5.0 | 0.00 | 0.32 | 0.19 | 78 | 1012.8 |
| 20260509164537 | 73 | 89 | 2.0 | 5.0 | 0.00 | 0.32 | 0.19 | 78 | 1012.9 |
| 20260509164023 | 73 | 169 | 2.0 | 8.0 | 0.00 | 0.32 | 0.19 | 79 | 1012.8 |
| 20260509163523 | 73 | 124 | 2.0 | 8.0 | 0.00 | 0.32 | 0.19 | 78 | 1012.8 |
| 20260509163039 | 73 | 129 | 2.0 | 7.0 | 0.00 | 0.32 | 0.19 | 79 | 1012.7 |
| 20260509162526 | 73 | 63 | 2.0 | 7.0 | 0.00 | 0.32 | 0.19 | 80 | 1012.7 |
| 20260509162027 | 73 | 34 | 2.0 | 6.0 | 0.00 | 0.32 | 0.19 | 78 | 1012.7 |
| 20260509161539 | 73 | 44 | 3.0 | 6.0 | 0.00 | 0.32 | 0.19 | 78 | 1012.5 |
| 20260509161024 | 73 | 122 | 2.0 | 6.0 | 0.00 | 0.32 | 0.19 | 78 | 1012.6 |
| 20260509160527 | 73 | 96 | 2.0 | 6.0 | 0.00 | 0.32 | 0.19 | 77 | 1012.5 |
| 20260509160037 | 73 | 0 | 1.0 | 5.0 | 0.00 | 0.32 | 0.19 | 81 | 1012.5 |
| 20260509155524 | 72 | 106 | 2.0 | 5.0 | 0.00 | 0.32 | 0.19 | 81 | 1012.6 |
| 20260509155023 | 72 | 67 | 2.0 | 5.0 | 0.00 | 0.32 | 0.19 | 81 | 1012.6 |
| 20260509154538 | 72 | 0 | 2.0 | 5.0 | 0.00 | 0.32 | 0.19 | 83 | 1012.5 |
| 20260509154024 | 72 | 34 | 1.0 | 4.0 | 0.00 | 0.32 | 0.19 | 84 | 1012.5 |
| 20260509153527 | 71 | 78 | 0.0 | 4.0 | 0.00 | 0.32 | 0.19 | 85 | 1012.6 |
| 20260509153037 | 71 | 31 | 1.0 | 4.0 | 0.00 | 0.32 | 0.19 | 87 | 1012.5 |
| 20260509152524 | 70 | 55 | 1.0 | 6.0 | 0.00 | 0.32 | 0.19 | 85 | 1012.5 |
| 20260509152024 | 70 | 51 | 0.0 | 6.0 | 0.00 | 0.32 | 0.19 | 86 | 1012.5 |
| 20260509151539 | 70 | 23 | 3.0 | 6.0 | 0.00 | 0.32 | 0.19 | 85 | 1012.4 |
| 20260509151023 | 70 | 27 | 2.0 | 6.0 | 0.00 | 0.32 | 0.19 | 85 | 1012.1 |
| 20260509150525 | 70 | 77 | 2.0 | 5.0 | 0.00 | 0.32 | 0.19 | 87 | 1012.0 |
| 20260509150037 | 70 | 51 | 2.0 | 5.0 | 0.00 | 0.32 | 0.19 | 87 | 1012.1 |
| 20260509145523 | 70 | 65 | 1.0 | 4.0 | 0.00 | 0.32 | 0.19 | 88 | 1012.2 |
| 20260509145027 | 70 | 360 | 1.0 | 4.0 | 0.00 | 0.32 | 0.19 | 88 | 1012.1 |
| 20260509144541 | 70 | 360 | 1.0 | 4.0 | 0.00 | 0.32 | 0.19 | 89 | 1012.1 |
| 20260509144027 | 69 | 341 | 0.0 | 4.0 | 0.00 | 0.32 | 0.19 | 89 | 1012.1 |
| 20260509143526 | 69 | 0 | 1.0 | 6.0 | 0.00 | 0.32 | 0.19 | 90 | 1012.2 |
| 20260509143039 | 69 | 75 | 1.0 | 6.0 | 0.00 | 0.32 | 0.19 | 90 | 1012.0 |
| 20260509142526 | 69 | 49 | 2.0 | 6.0 | 0.00 | 0.32 | 0.19 | 90 | 1012.1 |
| 20260509142026 | 69 | 297 | 1.0 | 5.0 | 0.00 | 0.32 | 0.19 | 89 | 1011.9 |
| 20260509141537 | 69 | 285 | 2.0 | 5.0 | 0.00 | 0.32 | 0.19 | 90 | 1011.8 |
| 20260509141026 | 69 | 13 | 1.0 | 4.0 | 0.00 | 0.32 | 0.19 | 91 | 1011.9 |
| 20260509140527 | 69 | 33 | 1.0 | 4.0 | 0.00 | 0.32 | 0.19 | 90 | 1012.0 |
| 20260509140038 | 68 | 0 | 0.0 | 2.0 | 0.00 | 0.32 | 0.19 | 92 | 1011.8 |
| 20260509135529 | 68 | 0 | 1.0 | 4.0 | 0.00 | 0.32 | 0.19 | 91 | 1011.8 |
| 20260509135029 | 68 | 0 | 0.0 | 4.0 | 0.00 | 0.32 | 0.19 | 92 | 1011.7 |
| 20260509134538 | 68 | 34 | 0.0 | 3.0 | 0.00 | 0.32 | 0.19 | 92 | 1011.7 |
| 20260509134027 | 68 | 0 | 0.0 | 3.0 | 0.00 | 0.32 | 0.19 | 93 | 1011.8 |
| 20260509133526 | 67 | 0 | 0.0 | 2.0 | 0.00 | 0.32 | 0.19 | 92 | 1011.8 |
| 20260509133038 | 67 | 0 | 0.0 | 2.0 | 0.00 | 0.32 | 0.19 | 92 | 1011.8 |
| 20260509132524 | 67 | 0 | 0.0 | 3.0 | 0.00 | 0.32 | 0.19 | 93 | 1011.6 |
| 20260509132026 | 67 | 0 | 0.0 | 3.0 | 0.00 | 0.32 | 0.19 | 93 | 1011.6 |
| 20260509131537 | 67 | 304 | 1.0 | 3.0 | 0.00 | 0.32 | 0.19 | 93 | 1011.6 |
| 20260509131023 | 67 | 0 | 0.0 | 2.0 | 0.00 | 0.32 | 0.19 | 93 | 1011.4 |
| 20260509130526 | 67 | 58 | 0.0 | 2.0 | 0.00 | 0.32 | 0.19 | 94 | 1011.5 |
| 20260509130040 | 66 | 0 | 0.0 | 4.0 | 0.00 | 0.32 | 0.19 | 94 | 1011.2 |
| 20260509125526 | 66 | 53 | 0.0 | 4.0 | 0.00 | 0.32 | 0.19 | 95 | 1011.0 |
| 20260509125022 | 65 | 35 | 1.0 | 3.0 | 0.00 | 0.32 | 0.19 | 94 | 1011.0 |
| 20260509124538 | 65 | 30 | 1.0 | 3.0 | 0.00 | 0.32 | 0.19 | 94 | 1011.0 |
| 20260509124029 | 65 | 0 | 0.0 | 1.0 | 0.00 | 0.32 | 0.19 | 95 | 1011.3 |
| 20260509123527 | 65 | 0 | 0.0 | 2.0 | 0.00 | 0.32 | 0.19 | 95 | 1011.1 |
| 20260509123035 | 64 | 0 | 0.0 | 2.0 | 0.00 | 0.32 | 0.19 | 95 | 1011.1 |
| 20260509122526 | 64 | 0 | 0.0 | 0.0 | 0.00 | 0.32 | 0.19 | 95 | 1011.1 |
| 20260509122026 | 63 | 0 | 0.0 | 0.0 | 0.00 | 0.32 | 0.19 | 95 | 1011.1 |
| 20260509121538 | 63 | 0 | 0.0 | 0.0 | 0.00 | 0.32 | 0.19 | 95 | 1011.0 |
| 20260509121027 | 63 | 0 | 0.0 | 0.0 | 0.00 | 0.32 | 0.19 | 95 | 1011.0 |
| 20260509120528 | 63 | 0 | 0.0 | 0.0 | 0.00 | 0.32 | 0.19 | 95 | 1011.1 |
| 20260509120049 | 63 | 0 | 0.0 | 0.0 | 0.00 | 0.32 | 0.19 | 95 | 1011.0 |
| 20260509115526 | 63 | 0 | 0.0 | 0.0 | 0.00 | 0.32 | 0.19 | 95 | 1011.0 |
| 20260509115022 | 63 | 0 | 0.0 | 0.0 | 0.00 | 0.32 | 0.19 | 95 | 1010.9 |
| 20260509114538 | 63 | 0 | 0.0 | 0.0 | 0.00 | 0.32 | 0.19 | 95 | 1010.9 |
| 20260509114024 | 63 | 0 | 0.0 | 0.0 | 0.00 | 0.32 | 0.19 | 95 | 1010.9 |
| 20260509113523 | 63 | 0 | 0.0 | 0.0 | 0.00 | 0.32 | 0.19 | 95 | 1011.0 |
| 20260509113035 | 63 | 0 | 0.0 | 1.0 | 0.00 | 0.32 | 0.19 | 95 | 1010.8 |
| 20260509112524 | 63 | 0 | 0.0 | 1.0 | 0.00 | 0.32 | 0.19 | 95 | 1010.7 |
| 20260509112023 | 63 | 0 | 0.0 | 0.0 | 0.00 | 0.32 | 0.19 | 95 | 1010.6 |
| 20260509111537 | 63 | 0 | 0.0 | 1.0 | 0.00 | 0.32 | 0.19 | 94 | 1010.5 |
| 20260509111023 | 63 | 171 | 0.0 | 1.0 | 0.00 | 0.32 | 0.19 | 94 | 1010.3 |
| 20260509110524 | 64 | 0 | 0.0 | 0.0 | 0.00 | 0.32 | 0.19 | 94 | 1010.2 |
| 20260509110037 | 64 | 0 | 0.0 | 1.0 | 0.00 | 0.32 | 0.19 | 94 | 1010.1 |
| 20260509105528 | 64 | 0 | 0.0 | 2.0 | 0.00 | 0.32 | 0.19 | 94 | 1010.2 |
| 20260509105026 | 64 | 0 | 0.0 | 2.0 | 0.00 | 0.32 | 0.19 | 94 | 1010.0 |
| 20260509104544 | 64 | 168 | 1.0 | 2.0 | 0.00 | 0.32 | 0.19 | 94 | 1010.0 |
| 20260509104022 | 64 | 158 | 0.0 | 2.0 | 0.00 | 0.32 | 0.19 | 94 | 1009.9 |
| 20260509103523 | 64 | 0 | 1.0 | 6.0 | 0.00 | 0.32 | 0.19 | 94 | 1010.0 |
| 20260509103038 | 64 | 188 | 3.0 | 6.0 | 0.00 | 0.32 | 0.19 | 94 | 1010.0 |
| 20260509102524 | 64 | 175 | 3.0 | 6.0 | 0.00 | 0.32 | 0.19 | 94 | 1010.1 |
| 20260509102024 | 64 | 193 | 3.0 | 6.0 | 0.00 | 0.32 | 0.19 | 94 | 1010.0 |
| 20260509101549 | 64 | 164 | 4.0 | 6.0 | 0.00 | 0.32 | 0.19 | 94 | 1010.0 |
| 20260509101026 | 64 | 184 | 3.0 | 6.0 | 0.00 | 0.32 | 0.19 | 94 | 1009.9 |
| 20260509100522 | 64 | 166 | 4.0 | 6.0 | 0.00 | 0.32 | 0.19 | 94 | 1009.9 |
| 20260509100037 | 64 | 177 | 3.0 | 6.0 | 0.00 | 0.32 | 0.19 | 95 | 1010.2 |
| 20260509095525 | 64 | 193 | 2.0 | 4.0 | 0.00 | 0.32 | 0.19 | 95 | 1010.3 |
| 20260509095027 | 64 | 204 | 2.0 | 4.0 | 0.00 | 0.32 | 0.19 | 95 | 1010.3 |
| 20260509094540 | 64 | 210 | 2.0 | 4.0 | 0.00 | 0.32 | 0.19 | 95 | 1010.3 |
| 20260509094025 | 64 | 154 | 2.0 | 5.0 | 0.00 | 0.32 | 0.19 | 95 | 1010.1 |
| 20260509093527 | 64 | 153 | 1.0 | 5.0 | 0.00 | 0.32 | 0.19 | 95 | 1010.1 |
| 20260509093051 | 64 | 156 | 1.0 | 3.0 | 0.00 | 0.32 | 0.19 | 95 | 1010.1 |
| 20260509092523 | 64 | 161 | 1.0 | 3.0 | 0.00 | 0.32 | 0.19 | 95 | 1010.1 |
| 20260509092023 | 64 | 155 | 1.0 | 3.0 | 0.00 | 0.32 | 0.19 | 95 | 1010.0 |
| 20260509091538 | 64 | 186 | 1.0 | 3.0 | 0.00 | 0.32 | 0.19 | 95 | 1009.9 |
| 20260509091024 | 64 | 207 | 2.0 | 4.0 | 0.00 | 0.32 | 0.19 | 95 | 1009.8 |
| 20260509090523 | 64 | 198 | 2.0 | 4.0 | 0.00 | 0.32 | 0.19 | 95 | 1009.6 |
| 20260509090040 | 64 | 214 | 3.0 | 5.0 | 0.00 | 0.32 | 0.19 | 95 | 1009.6 |
| 20260509085527 | 64 | 203 | 2.0 | 5.0 | 0.00 | 0.32 | 0.19 | 95 | 1009.7 |
| 20260509085023 | 64 | 0 | 0.0 | 4.0 | 0.00 | 0.32 | 0.19 | 95 | 1009.6 |
| 20260509084548 | 64 | 0 | 0.0 | 5.0 | 0.00 | 0.32 | 0.19 | 95 | 1009.8 |
| 20260509084023 | 64 | 180 | 2.0 | 6.0 | 0.00 | 0.32 | 0.19 | 95 | 1009.6 |
| 20260509083523 | 64 | 156 | 4.0 | 6.0 | 0.00 | 0.32 | 0.19 | 95 | 1009.3 |
| 20260509083038 | 64 | 149 | 2.0 | 3.0 | 0.00 | 0.32 | 0.19 | 95 | 1009.4 |
| 20260509082522 | 64 | 155 | 1.0 | 3.0 | 0.01 | 0.32 | 0.19 | 95 | 1009.7 |
| 20260509082021 | 64 | 169 | 1.0 | 3.0 | 0.01 | 0.32 | 0.19 | 95 | 1010.0 |
| 20260509081541 | 64 | 143 | 0.0 | 2.0 | 0.05 | 0.32 | 0.19 | 95 | 1009.9 |